Hourly Data Report for October 27, 2012

All times are specified in Local Standard Time (LST). Add 1 hour to adjust for Daylight Saving Time where and when it is observed.

IQALUIT CLIMATE
NUNAVUT

63°44'50.000" N
68°32'40.000" W
33.50 m
2402592
71321
XFB

Download Data

Hourly Data (October 2012)
Hourly Data Report for October 27, 2012
Temp Definition
°C
Dew Point Temp Definition
°C
Rel Hum Definition
%
Wind Dir Definition
10's deg

Wind Spd Definition
km/h
Visibility Definition
km
Stn Press Definition
kPa
Hmdx Definition


Wind Chill Definition


Weather Definition


TIME
00:00 0.8 0.8 100 14 44   100.15     LegendNANA
01:00 0.8 0.8 100 14 30   100.16     LegendNANA
02:00 0.7 0.7 100 16 43   100.17     LegendNANA
03:00 0.6 0.6 100 15 33   100.20     LegendNANA
04:00 1.3 1.3 100 15 28   100.21     LegendNANA
05:00 1.6 1.2 97 16 26   100.26     LegendNANA
06:00 2.5 1.3 92 17 22   100.27     LegendNANA
07:00 3.0 -1.2 74 20 30   100.40     LegendNANA
08:00 2.4 -2.1 72 20 35   100.49     LegendNANA
09:00 2.3 -1.7 75 19 28   100.52     LegendNANA
10:00 2.6 -2.7 68 20 35   100.55     LegendNANA
11:00 2.3 -2.5 71 18 32   100.60     LegendNANA
12:00 2.1 -2.5 72 19 33   100.65     LegendNANA
13:00 2.0 -2.6 72 19 30   100.72     LegendNANA
14:00 1.4 -2.4 76 18 28   100.75     LegendNANA
15:00 1.7 -2.8 72 20 35   100.81     LegendNANA
16:00 1.3 -3.0 73 19 32   101.02     LegendNANA
17:00 1.2 -2.9 74 17 35   101.05     LegendNANA
18:00 0.9 -2.7 77 18 22   101.16     LegendNANA
19:00 0.5 -3.0 77 18 30   101.21     LegendNANA
20:00 0.5 -3.1 77 20 30   101.31     LegendNANA
21:00 0.2 -3.7 75 20 28   101.46     LegendNANA
22:00 0.4 -3.8 73 19 30   101.53     LegendNANA
23:00 -0.1 -3.6 77 19 28   101.63   -6 LegendNANA

Notes on Data Quality.

Legend

  • E = Estimated
  • M = Missing
  • NA = Not Available
  • ‡ = Partner data that is not subject to review by the National Climate Archives
Date modified: